#timestamp,LO_Frequency,Hit,StdDev 
1662760815.5,286047014.6,P
1662760835.4,286047023.1,Y
1662760855.2,286047002.8,P
1662760875.1,286047002.8,N
1662760876.0,286047002.8,N
1662760895.8,286047001.9,N
1662760915.6,286047003.6,N
1662760935.5,286047002.4,N
1662760955.3,286046999.9,N
1662760975.1,286047001.5,N
1662760995.9,286046999.9,N
1662761015.7,286047003.6,N
1662761035.6,286047005.7,N
1662761055.4,286047004.8,N
1662761075.2,286047006.8,N
1662761095.1,286047006.8,N
1662761096.0,286047006.8,N
1662761115.8,286047003.4,N
1662761135.7,286047005.2,N
1662761155.5,286047004.6,N
1662761175.3,286047004.9,N
1662761195.2,286047006.7,N
1662761215.0,286047007.2,N
1662761215.9,286047007.2,N
1662761235.8,286047009.2,N
1662761255.6,286047006.3,N
1662761275.4,286047007.6,N
1662761295.3,286047007.2,N
1662761315.1,286047007.8,N
1662761316.0,286047007.8,N
1662761335.8,286047007.7,N
1662761355.7,286047008.1,N
1662761375.5,286047012.1,Y
1662761395.4,286047007.1,P
1662761415.2,286047007.5,P
1662761435.0,286047006.7,P
1662761435.9,286047006.7,Y
1662761455.8,286046997.6,P
1662761475.6,286046994.4,N
1662761495.4,286046988.5,N
1662761515.3,286046987.1,N
1662761535.1,286046983.8,N
1662761555.9,286046986.6,N
1662761575.7,286046985.4,N
1662761595.5,286046982.2,N
1662761615.4,286046982.1,N
1662761635.2,286046981.0,N
1662761655.0,286046983.0,N
1662761655.9,286046983.0,N
1662761675.8,286046979.9,N
1662761695.6,286046973.0,Y
1662761715.5,286046982.0,P
1662761735.3,286046976.0,P
1662761755.1,286046972.7,P
1662761775.9,286046970.9,Y
1662761795.7,286046991.8,P
1662761815.5,286046992.7,N
1662761835.4,286046990.2,N
1662761855.2,286046986.0,N
1662761875.1,286046984.5,Y
1662761876.0,286046984.5,P
1662761895.8,286046996.4,N
1662761915.6,286046995.9,N
1662761935.5,286046993.5,N
1662761955.3,286046996.4,N
1662761975.2,286046995.9,N
1662761995.9,286046997.6,N
1662762015.7,286047001.2,N
1662762035.6,286047001.9,N
1662762055.4,286047003.7,N
1662762075.2,286047003.5,N
1662762095.1,286047001.6,N
1662762096.0,286047001.6,N
1662762115.8,286047002.5,N
1662762135.7,286047001.2,N
1662762155.5,286046998.4,N
1662762175.3,286046997.5,N
1662762195.2,286046995.0,N
1662762215.0,286046995.1,N
1662762215.9,286046995.1,N
1662762235.7,286046995.6,N
1662762255.6,286046993.9,N
1662762275.4,286046986.3,N
1662762295.3,286046994.2,N
1662762345.1,286046998.9,E
1662762355.0,286046998.2,N
1662762355.9,286046998.2,P
1662762375.8,286047000.7,P
1662762395.6,286046997.9,N
1662762415.5,286046991.9,Y
1662762435.3,286046992.5,P
1662762455.1,286046990.9,N
1662762475.9,286046987.9,P
1662762495.7,286046987.0,Y
1662762515.6,286046993.6,P
1662762535.4,286046995.1,P
1662762555.2,286046990.7,P
1662762575.1,286046988.2,Y
1662762576.0,286046988.2,P
1662762595.8,286046994.2,N
1662762615.7,286046993.9,N
1662762635.5,286046991.8,Y
1662762655.3,286046998.3,P
1662762675.2,286047001.0,N
1662762695.0,286046999.7,N
1662762695.9,286046999.7,N
1662762715.7,286047003.7,N
1662762735.6,286047005.0,N
1662762755.4,286047008.7,N
1662762775.3,286047008.8,N
1662762795.1,286047009.9,N
1662762796.0,286047009.9,N
1662762815.9,286047009.7,N
1662762835.7,286047008.1,N
1662762855.5,286047011.9,N
1662762875.4,286047011.0,N
1662762895.2,286047011.7,N
1662762915.0,286047010.3,N
1662762915.9,286047010.3,N
1662762935.8,286047008.7,N
1662762955.6,286047007.9,N
1662762975.4,286047012.0,N
1662762995.3,286047011.7,N
1662763015.1,286047009.3,N
1662763035.9,286047011.9,N
1662763055.7,286047014.6,N
1662763075.5,286047017.0,Y
1662763095.4,286047009.4,P
1662763115.2,286047013.1,P
1662763135.0,286047017.6,P
1662763136.0,286047017.6,Y
1662763155.8,286047008.4,P
1662763175.6,286047010.4,P
1662763195.5,286047007.9,P
1662763215.3,286047005.3,Y
1662763235.1,286046990.5,P
1662763255.9,286046996.3,N
1662763275.7,286046993.6,N
1662763295.5,286046994.1,N
1662763315.4,286046993.3,N
1662763335.2,286046993.4,N
1662763355.1,286046993.7,N
1662763356.0,286046993.7,N
1662763375.8,286046996.2,N
1662763395.6,286046997.5,N
1662763415.5,286046997.6,N
1662763435.3,286046998.1,N
1662763455.1,286046998.5,N
1662763475.9,286046999.3,N
1662763495.7,286046998.1,N
1662763515.6,286046995.0,N
1662763535.4,286046995.6,N
1662763555.2,286046993.4,N
1662763575.1,286046993.9,N
1662763576.0,286046993.9,N
1662763595.8,286046997.8,N
1662763615.6,286046995.0,N
1662763635.5,286046998.0,N
1662763655.3,286046995.4,N
1662763675.2,286046996.2,N
1662763695.9,286046994.1,N
1662763715.7,286046993.4,N
1662763735.6,286046993.4,N
1662763755.4,286046996.5,N
1662763775.2,286046996.7,N
1662763795.1,286046995.7,N
1662763796.0,286046995.7,N
1662763815.8,286046995.4,N
1662763835.7,286046997.7,N
1662763855.5,286046998.5,N
1662763875.3,286047000.3,N
1662763895.2,286047002.1,N
1662763915.0,286047005.1,N
1662763915.9,286047005.1,N
1662763935.8,286047003.8,N
1662763955.6,286047000.6,N
1662763975.4,286046999.4,N
1662763995.3,286047001.7,N
1662764015.1,286047003.6,N
1662764035.9,286047002.8,N
1662764055.7,286047000.4,N
1662764075.5,286047001.7,N
1662764095.4,286047004.5,N
1662764115.2,286047005.0,N
1662764135.0,286047008.6,N
1662764135.9,286047008.6,N
1662764155.8,286047009.3,N
1662764175.6,286047012.4,N
1662764195.5,286047007.9,N
1662764215.3,286047006.5,N
1662764235.1,286047007.1,N
1662764255.9,286047008.9,N
1662764275.7,286047009.9,N
1662764295.6,286047013.8,N
1662764315.4,286047014.4,N
1662764335.3,286047022.3,Y
1662764355.1,286047020.8,P
1662764356.0,286047020.8,N
1662764375.8,286047019.1,N
1662764395.7,286047017.8,N
